Wind_Speed
10 9 8 8 7 6 6 6 6 6 7 6 7 8 9 10 11 9 11 2 10 5 9 8 13 9 9 13 22 11 5 7 10 7 14 14 12 14 16 11 7 12 17 24 26
12 10 8 8 7 7 7 6 7 7 7 7 8 8 9 11 12 17 16 9 7 8 11 13 8 8 9 7 6 6 6 5 8 11 11 14 13 15 13 11 11 19 24 27 26
13 11 9 8 7 7 7 7 7 7 7 8 8 8 8 9 9 2 13 9 9 11 15 5 7 7 6 6 5 5 4 13 10 12 14 15 11 13 11 12 17 19 19 20 23
15 13 11 9 7 7 7 7 7 7 7 8 8 8 10 3 3 5 10 8 8 12 14 10 9 1 6 9 3 8 7 6 13 10 12 8 11 11 8 15 19 20 20 18 18
16 15 12 10 8 7 7 8 8 7 7 7 7 9 5 8 2 10 12 11 11 10 17 15 8 11 15 11 10 14 8 13 8 7 9 13 7 9 10 16 20 20 19 18 17
17 17 14 11 9 7 8 8 8 8 7 6 8 9 6 12 7 14 13 14 12 14 18 12 13 14 12 12 11 4 7 12 7 9 5 10 10 8 13 15 19 19 18 17 17
19 18 15 12 10 8 7 8 7 7 6 6 7 6 9 10 7 12 15 15 14 16 16 10 10 13 12 15 4 5 6 9 12 9 6 8 13 3 13 14 17 17 16 16 16
20 18 16 13 9 9 8 6 7 6 5 5 6 4 7 6 6 12 15 14 15 16 16 14 14 14 14 7 12 12 11 6 14 13 11 4 5 13 8 15 15 18 16 15 15
21 19 17 13 9 8 8 6 5 6 5 5 5 7 14 6 11 14 16 16 16 15 16 17 13 15 11 9 2 4 3 14 16 15 13 12 5 22 22 17 16 16 16 15 15
21 19 17 15 9 7 7 5 5 5 5 7 14 9 13 14 13 15 17 16 11 11 14 16 14 3 8 9 6 9 6 11 19 26 10 14 17 20 23 20 19 17 16 16 16
22 21 17 16 10 6 3 4 5 6 14 13 15 13 9 13 14 16 17 15 12 13 14 15 13 6 14 12 14 10 17 5 11 6 18 14 9 11 14 16 19 19 18 17 17
23 21 18 16 11 7 7 6 12 9 8 25 23 19 16 12 12 14 17 13 15 14 16 16 16 4 17 17 8 12 7 5 4 14 13 9 11 11 21 15 16 20 20 19 17
24 22 19 16 9 9 15 20 15 12 11 16 25 19 13 13 15 16 17 16 16 15 17 17 7 13 14 18 13 7 1 10 6 9 6 10 6 16 5 15 11 17 21 20 19
25 22 19 17 5 7 17 15 14 10 8 19 26 21 20 17 19 20 22 17 16 18 17 15 11 10 20 17 12 6 5 10 4 9 7 2 5 15 21 25 33 15 19 19 20
27 24 17 12 14 8 8 2 5 8 6 16 21 9 22 23 10 20 19 14 20 18 14 18 16 13 12 14 12 12 5 12 11 10 12 8 6 3 11 25 28 20 16 17 18
28 25 16 4 8 16 9 7 7 6 11 8 10 11 18 23 19 18 20 17 16 19 19 20 19 11 17 8 6 12 12 16 18 8 4 6 7 10 15 24 25 19 18 16 18
28 23 16 10 5 5 9 8 6 10 7 10 14 13 17 19 20 19 16 18 15 16 16 19 21 17 12 15 15 14 15 13 9 6 6 9 5 8 20 26 29 25 20 20 19
26 18 10 18 10 10 10 9 10 13 16 4 10 13 16 17 17 22 16 15 20 20 18 14 14 24 18 17 16 17 14 8 16 3 11 13 3 3 16 26 29 28 17 16 18
24 6 7 9 19 10 8 12 11 17 9 2 6 14 15 18 13 20 19 17 17 19 20 18 19 11 4 20 19 16 13 19 18 28 17 8 1 18 23 12 10 16 17 15 14
13 12 19 12 15 13 9 18 19 23 6 13 13 10 12 18 19 17 18 17 17 17 19 18 17 14 7 7 12 13 12 11 13 14 11 3 6 5 33 30 15 15 15 13 12
4 5 14 13 15 8 13 18 20 23 5 8 16 17 13 15 17 17 14 17 14 14 15 15 13 18 14 7 13 13 14 14 17 14 13 4 3 11 21 26 16 18 18 17 16
9 9 13 16 9 9 14 21 21 23 9 8 16 14 17 13 16 12 13 15 15 9 14 14 12 13 18 12 16 17 16 11 9 11 13 11 4 21 24 19 9 14 11 10 9
4 7 9 15 8 12 17 22 22 23 16 12 12 14 15 13 14 12 9 8 12 5 4 6 9 12 17 13 12 10 14 13 19 15 16 5 4 15 18 9 10 10 9 6 8
5 4 6 8 12 19 16 17 19 21 21 12 15 14 12 11 13 15 12 9 9 7 4 5 13 16 14 14 7 3 11 16 15 12 12 9 21 13 5 9 12 12 10 9 16
4 7 15 5 12 17 18 19 15 18 13 14 15 16 15 14 15 17 14 14 14 11 6 7 15 18 20 20 8 13 6 24 17 12 14 13 13 16 7 6 6 12 12 12 13
6 6 12 14 12 8 13 17 18 19 12 14 14 15 16 18 18 19 19 11 14 15 13 15 14 15 18 20 19 13 16 14 15 11 11 17 13 13 24 9 11 11 14 13 13
14 12 7 11 12 11 11 12 13 17 17 9 9 11 12 13 13 17 14 16 18 8 15 15 14 13 17 18 17 17 18 15 15 13 14 5 15 16 15 13 14 14 16 15 14
Wind_Direction
1 351 350 341 341 331 326 318 310 304 300 302 297 302 307 303 297 280 255 175 200 223 168 211 231 233 219 228 158 214 325 295 88 137 114 127 92 80 98 130 119 103 147 135 146
2 353 347 336 333 327 322 316 312 305 303 301 302 306 311 309 292 263 249 245 247 199 193 215 215 222 265 226 307 199 166 268 245 125 125 108 115 130 124 118 137 102 112 138 148
1 353 346 333 325 321 316 310 311 307 307 305 306 310 311 321 277 122 203 223 226 209 214 244 6 37 212 214 211 240 198 212 157 115 134 124 129 140 136 139 128 131 137 149 153
2 354 343 334 323 316 310 305 306 301 300 300 305 308 311 289 344 128 175 194 202 205 250 239 155 329 265 293 280 329 142 179 129 155 140 130 153 144 93 144 139 139 150 154 161
2 355 343 331 323 314 308 303 303 297 297 300 304 313 321 240 223 157 172 173 183 212 247 253 204 205 226 20 334 285 62 109 123 151 149 142 178 102 102 110 125 140 155 161 169
359 355 346 333 320 313 309 299 300 296 295 300 306 320 263 272 116 160 164 170 186 215 240 275 319 334 320 181 189 310 150 124 174 96 130 148 92 173 122 128 134 150 161 169 170
358 354 348 336 322 309 302 296 293 287 287 293 300 326 263 271 145 172 179 189 208 233 268 302 321 305 305 333 270 246 185 174 142 171 172 205 151 126 138 144 149 164 171 174 171
357 352 348 340 322 304 295 291 285 274 273 280 287 283 267 180 198 184 194 210 230 250 273 293 291 301 282 256 39 340 58 332 296 186 134 154 301 305 184 161 163 171 177 177 178
354 351 349 341 324 297 290 288 264 257 256 264 277 228 268 172 210 204 204 221 222 247 258 271 277 277 29 351 26 183 186 234 331 242 159 136 150 250 250 175 169 176 179 181 181
351 348 345 343 322 294 284 271 262 249 244 246 263 265 240 217 201 198 209 235 241 247 253 251 257 220 156 229 234 155 197 187 199 267 228 171 188 215 221 176 170 179 176 185 183
350 346 343 340 321 282 241 279 215 206 228 223 194 217 146 227 170 200 202 222 248 250 261 249 250 228 202 254 260 278 210 216 245 123 262 215 198 192 193 191 177 175 175 184 187
349 344 340 335 313 264 243 245 303 331 277 226 255 232 254 169 195 205 194 219 224 239 229 242 243 82 329 277 276 295 7 332 284 168 270 245 239 253 18 274 196 179 174 183 185
346 341 336 330 302 251 224 246 303 309 281 264 218 233 204 196 222 202 196 217 242 228 261 259 241 145 251 275 273 89 96 222 215 272 227 356 237 358 175 356 191 193 175 180 183
344 337 333 329 294 273 226 250 257 283 278 245 200 217 219 211 241 254 187 223 229 258 255 267 252 198 225 258 289 279 272 294 183 272 239 234 324 11 342 336 320 222 176 177 178
341 334 328 314 301 264 14 251 272 266 274 144 180 197 203 208 230 210 227 206 244 236 239 260 275 239 236 270 280 294 304 292 282 273 121 90 71 29 33 300 295 242 174 175 174
338 331 321 305 252 251 312 278 248 234 246 162 137 192 193 208 219 260 202 209 235 249 270 271 272 286 279 295 228 281 289 267 253 258 239 125 151 207 190 209 247 297 170 173 170
330 322 293 254 218 271 251 244 222 247 170 173 177 195 210 201 215 237 186 214 223 234 248 255 261 261 259 274 267 251 253 263 250 237 299 281 273 221 190 163 196 244 191 166 161
324 305 279 240 245 265 252 223 245 238 254 90 185 189 204 214 205 224 209 224 221 243 268 231 239 222 221 228 250 265 301 298 276 23 268 248 279 279 238 207 225 228 159 152 159
327 289 224 242 213 234 225 221 224 259 327 312 209 185 199 212 213 220 216 236 223 210 241 266 269 296 234 218 221 248 247 249 276 227 229 107 160 253 270 126 171 141 135 150 162
323 281 244 178 181 205 222 238 239 248 337 323 284 208 225 201 209 218 216 223 249 234 216 248 273 282 302 264 262 263 284 288 281 278 278 228 70 7 319 296 131 133 137 145 167
259 233 123 160 172 214 222 233 245 264 277 265 281 284 267 253 207 223 227 238 222 240 240 242 239 268 268 212 255 229 244 249 272 283 295 131 210 181 252 266 152 157 159 162 171
282 260 151 166 196 221 231 239 262 273 226 243 270 291 301 304 274 237 230 236 221 221 230 223 262 236 260 227 221 243 243 253 239 258 259 286 114 204 223 254 147 114 119 143 205
267 225 164 198 226 229 229 247 252 259 256 264 240 264 269 295 293 291 272 258 126 172 344 270 222 260 267 253 195 231 249 258 275 259 267 290 174 197 240 162 95 101 88 76 63
276 236 150 211 248 269 270 240 237 245 262 245 283 280 285 277 271 279 270 182 160 190 79 316 280 271 257 242 48 267 252 245 257 274 295 64 148 137 207 132 125 127 124 107 71
243 264 360 200 217 234 257 270 265 240 230 230 259 268 272 269 265 268 248 280 168 149 213 234 254 277 287 290 277 275 209 272 238 267 289 123 128 115 333 320 151 137 122 115 96
330 344 345 302 296 299 245 250 270 278 256 228 221 257 268 245 257 276 277 273 255 176 204 221 242 256 274 287 292 271 268 274 270 286 291 126 130 160 181 190 153 142 138 127 113
7 331 300 290 279 269 258 269 242 256 273 299 289 274 285 267 334 316 309 306 258 310 217 211 245 247 254 269 272 266 269 268 262 272 285 301 162 170 187 167 152 152 141 133 127
Height
790 788 787 786 784 783 782 781 780 779 778 779 778 776 775 773 771 769 764 757 757 759 761 761 759 758 762 758 772 763 773 784 744 749 744 727 739 732 734 748 747 749 762 770 781
790 788 787 785 784 783 782 780 779 779 778 777 776 776 774 772 770 765 756 754 755 758 760 755 750 748 749 750 741 750 782 772 737 725 735 731 738 741 747 754 756 757 764 775 781
790 788 787 785 783 782 781 780 779 778 777 776 775 774 773 772 766 748 750 752 753 754 755 753 752 755 768 751 748 738 756 734 725 723 722 734 740 733 749 761 756 767 770 775 780
790 788 786 785 783 781 780 779 778 778 777 776 774 773 772 773 770 750 751 752 753 754 756 747 747 768 755 756 729 742 720 724 721 718 724 733 728 744 742 745 745 758 767 772 778
791 788 785 784 783 781 780 778 777 777 776 775 774 773 772 766 751 750 751 752 754 755 751 740 742 749 762 745 743 734 724 718 719 718 720 725 733 736 743 738 746 758 766 771 774
791 788 785 783 781 781 779 778 777 776 776 775 774 773 772 767 749 749 752 753 754 753 742 735 731 725 731 738 745 720 723 722 720 723 724 732 737 738 743 740 751 760 765 768 770
792 788 785 782 781 779 779 777 776 776 775 774 774 773 768 754 748 751 753 753 752 747 738 733 732 734 728 752 718 719 732 725 725 729 732 723 748 752 740 743 754 760 762 765 767
792 788 785 782 780 778 777 777 775 775 775 774 774 775 762 747 747 750 751 751 750 744 742 737 734 733 733 721 742 750 765 770 736 723 725 735 789 755 739 744 755 757 760 762 765
790 788 785 781 779 777 776 775 774 773 774 774 774 772 757 746 746 746 747 746 744 742 739 736 734 736 744 759 766 759 786 779 775 720 724 742 781 757 740 738 749 752 756 759 763
789 786 784 781 778 777 775 774 774 773 773 776 773 773 747 742 739 741 744 743 738 736 736 734 733 752 758 768 781 769 774 769 796 749 723 733 751 744 728 728 739 745 751 756 759
789 785 783 780 778 776 776 775 774 772 769 753 744 742 729 731 734 738 740 741 739 739 754 733 747 763 755 738 730 730 740 751 742 733 740 728 729 730 721 724 730 736 745 751 754
789 784 781 778 776 775 775 770 750 749 754 744 739 732 727 730 740 734 737 745 746 758 739 744 752 734 738 724 728 727 738 744 733 743 727 730 734 727 744 735 721 726 736 744 748
787 783 780 776 774 773 769 760 754 750 754 732 730 730 727 730 734 733 732 737 744 752 744 749 735 730 739 730 731 732 749 754 746 727 722 736 752 755 746 745 716 713 721 731 741
786 782 779 774 775 765 761 757 756 751 768 736 729 725 724 727 738 720 721 733 739 750 738 734 713 728 738 733 723 742 722 724 729 740 761 741 802 782 780 760 758 717 718 726 733
785 780 777 775 770 763 754 753 752 750 797 708 718 708 714 729 721 724 715 725 745 739 738 743 727 727 733 729 727 736 717 724 723 732 755 775 799 804 805 801 779 724 716 721 727
782 778 775 774 770 759 758 755 754 778 784 727 715 724 728 723 725 712 719 716 721 736 729 728 706 715 722 712 716 713 725 723 718 730 768 759 780 799 801 799 783 737 714 718 725
778 775 773 771 761 759 758 756 778 782 709 724 724 721 727 732 733 725 731 739 752 766 761 737 728 711 707 729 714 720 734 760 764 768 775 737 759 749 757 749 751 740 709 710 719
772 769 766 763 762 763 759 766 789 737 726 694 705 714 734 723 728 727 734 745 730 737 746 753 757 716 703 720 734 727 734 766 792 797 783 734 768 753 717 724 718 707 698 706 714
766 762 761 754 757 761 759 778 762 732 702 704 707 725 729 720 720 727 728 732 723 724 755 749 741 695 696 695 708 728 744 716 741 750 752 753 786 766 722 704 702 700 704 711 714
767 760 748 749 755 758 762 766 735 707 703 706 727 714 728 721 725 722 725 713 719 704 704 726 750 709 701 696 698 711 704 742 728 764 768 776 798 823 783 776 710 712 713 714 716
768 751 740 747 753 753 762 748 729 710 707 722 723 718 710 711 708 715 719 704 698 703 698 708 730 731 706 720 728 722 730 724 720 725 750 779 824 803 791 749 713 710 710 712 712
760 753 740 745 756 746 748 736 725 709 698 714 712 713 714 706 709 707 713 701 682 693 714 705 720 743 724 696 691 697 708 707 736 743 722 723 772 756 735 724 704 707 707 707 707
758 735 740 742 755 744 731 729 717 715 708 713 717 709 704 713 725 705 699 679 683 697 713 703 728 750 737 709 692 709 703 703 701 699 720 735 776 724 729 710 709 718 720 719 715
761 739 733 738 732 732 727 723 724 704 705 704 710 704 711 718 707 716 705 688 686 693 710 707 723 731 743 723 709 721 710 700 703 720 715 721 737 732 732 725 726 728 730 730 735
754 735 726 733 733 731 726 718 716 720 702 708 720 719 721 732 723 717 704 694 689 710 703 710 737 723 711 701 702 709 720 704 705 703 722 729 745 765 768 746 739 735 737 741 749
759 755 743 735 719 724 726 725 724 712 708 713 724 718 715 726 722 722 703 700 704 696 703 700 731 721 726 706 701 709 696 695 700 694 696 715 745 732 738 732 740 743 743 752 757
771 766 758 744 728 727 724 717 718 711 705 699 705 713 716 712 707 699 691 692 692 701 693 703 714 724 740 712 710 727 703 698 695 687 692 715 729 739 740 731 740 743 746 753 761